TimePST,TemperatureF,Dew PointF,Humidity,Sea Level PressureIn,VisibilityMPH,Wind Direction,Wind SpeedMPH,Gust SpeedMPH,PrecipitationIn,Events,Conditions,WindDirDegrees,DateUTC
12:00 AM,43.2,39.7,88,29.80,-9999.0,SE,23.0,-,N/A,,Unknown,140,2013-01-26 08:00:00
1:00 AM,43.2,39.7,88,29.79,-9999.0,SE,21.9,-,N/A,,Unknown,130,2013-01-26 09:00:00
2:00 AM,43.3,39.7,87,29.80,-9999.0,SE,20.7,-,N/A,,Unknown,130,2013-01-26 10:00:00
3:00 AM,42.8,39.0,86,29.81,-9999.0,SE,19.6,-,N/A,,Unknown,140,2013-01-26 11:00:00
4:00 AM,43,40,83,29.81,,SE,18.4,,,,,130,2013-01-26 12:00:00
4:00 AM,43.0,39.6,88,29.81,-9999.0,SE,18.4,-,N/A,,Unknown,130,2013-01-26 12:00:00
5:00 AM,42.4,39.0,88,29.81,-9999.0,SE,18.4,-,N/A,,Unknown,130,2013-01-26 13:00:00
6:00 AM,42.4,39.4,89,29.83,-9999.0,SSE,16.1,-,N/A,,Unknown,150,2013-01-26 14:00:00
7:00 AM,41.4,38.8,91,29.85,-9999.0,South,10.4,-,0.05,,Unknown,170,2013-01-26 15:00:00
8:00 AM,41.2,38.3,89,29.86,-9999.0,South,8.1,-,0.02,,Unknown,180,2013-01-26 16:00:00
9:00 AM,40.8,37.6,88,29.88,-9999.0,WSW,3.5,-,0.02,,Unknown,240,2013-01-26 17:00:00
10:00 AM,42,39,86,29.89,,West,1.2,,,,,260,2013-01-26 18:00:00
10:00 AM,42.3,39.2,89,29.89,-9999.0,West,1.2,-,N/A,,Unknown,260,2013-01-26 18:00:00
11:00 AM,42.3,38.8,88,29.91,-9999.0,SW,2.3,-,N/A,,Unknown,220,2013-01-26 19:00:00
12:00 PM,42.3,39.9,91,29.91,-9999.0,SE,2.3,-,N/A,,Unknown,140,2013-01-26 20:00:00
1:00 PM,42.1,39.6,91,29.91,-9999.0,East,3.5,-,0.02,,Unknown,100,2013-01-26 21:00:00
2:00 PM,42.4,39.4,89,29.92,-9999.0,East,4.6,-,N/A,,Unknown,100,2013-01-26 22:00:00
3:00 PM,43.5,39.4,85,29.92,-9999.0,East,4.6,-,N/A,,Unknown,100,2013-01-26 23:00:00
4:00 PM,43,39,79,29.93,,SSW,3.5,,,,,200,2013-01-27 00:00:00
4:00 PM,43.2,38.7,84,29.93,-9999.0,SSW,3.5,-,N/A,,Unknown,200,2013-01-27 00:00:00
5:00 PM,43.2,38.5,84,29.94,-9999.0,South,2.3,-,N/A,,Unknown,170,2013-01-27 01:00:00
6:00 PM,43.2,39.4,86,29.94,-9999.0,SSE,9.2,-,N/A,,Unknown,160,2013-01-27 02:00:00
7:00 PM,42.1,38.7,88,29.95,-9999.0,SW,6.9,-,0.02,,Unknown,230,2013-01-27 03:00:00
8:00 PM,41.4,39.4,93,29.96,-9999.0,WSW,10.4,-,0.05,,Unknown,240,2013-01-27 04:00:00
9:00 PM,41.7,39.6,92,29.96,-9999.0,WSW,5.8,-,N/A,,Unknown,240,2013-01-27 05:00:00
10:00 PM,42,39,85,29.96,,SW,8.1,,,,,220,2013-01-27 06:00:00
10:00 PM,42.1,39.0,89,29.96,-9999.0,SW,8.1,-,N/A,,Unknown,220,2013-01-27 06:00:00
11:00 PM,42.4,38.5,86,29.97,-9999.0,SW,12.7,-,N/A,,Unknown,230,2013-01-27 07:00:00